Vertical_Velocity
5 -1 -1 -1 -1 2 0 1 -2 -2 -5 -2 -0 0 1 4 3 -3 -1 6 1 -3 3 0 1 2 -2 6 3 3 9 -3 1 0 -10 39 -15 10 -10 -7 1 -7 33 6
-6 1 -0 -7 1 -1 -0 0 -2 -2 -6 -3 -3 -3 -3 -1 -1 2 4 -0 2 -0 -5 -6 -4 0 -5 -7 -17 4 0 -3 -6 -1 -5 -4 8 1 -8 1 -4 4 17 7
-5 -1 -1 -4 -2 -2 -2 1 0 -0 -0 0 -0 -2 -3 -3 -3 -2 -4 0 3 3 4 4 -1 -4 -8 0 4 1 -5 -6 -13 -3 1 4 -3 -1 21 15 -2 5 -2 22
-5 -2 -6 -2 -1 -2 -3 -0 -1 0 -1 0 2 1 -1 -0 -2 -4 -2 -2 -5 -0 -1 0 2 2 4 -4 1 9 1 -8 -1 1 0 -3 -1 3 3 -3 1 -8 17 -7
-0 -3 -7 -1 -1 -2 -2 -5 -1 -1 -0 1 -1 -1 -1 -2 -4 0 -3 -4 -2 -4 -6 -4 -4 -4 1 6 19 -11 -10 -3 1 -4 1 -2 -6 0 -1 -11 -9 10 -3 7
1 -0 -2 -1 -1 -0 -1 -10 -2 3 -1 -6 -7 -9 0 -3 -1 -4 -1 -1 -3 -3 -2 -3 -3 -0 -0 -5 -6 -3 -1 4 3 2 -1 -1 -2 2 1 -2 -5 -8 -3 18
1 -4 -7 0 -2 -0 -1 -1 1 -1 -3 -1 -2 -5 -1 -2 -1 0 -2 -3 -3 -2 -3 -1 1 1 -3 -7 -5 -2 -1 -0 -0 -1 2 -1 1 -0 -4 -4 -0 -3 -12 -1
-0 -0 -8 -1 2 -2 2 -1 -4 -1 -1 -2 -0 3 -2 -0 -1 -2 -1 -2 -0 -1 -2 -4 -5 -3 -1 -0 0 -2 2 3 0 -4 -15 -14 -9 -5 -9 -3 -4 -3 -9 -9
-7 -9 0 -3 2 3 -2 -2 4 1 1 -0 -0 -1 -4 -3 -5 -2 -1 -2 -4 -0 0 -1 1 -3 1 1 2 4 0 -4 -1 -2 -3 -5 9 -2 -6 -9 -6 -0 -7 -3
3 4 0 1 3 -3 -2 -3 -1 -2 -1 -4 -1 -1 1 0 3 1 -2 -1 -2 -4 -4 -2 -4 -3 -4 -4 -6 -3 -0 -3 -5 -9 -5 -3 1 -7 -5 -3 -1 2 0 -3
-6 2 -1 -1 -2 -1 -1 -3 -2 -1 -3 -0 -1 8 -2 -1 -3 -2 -0 -1 -2 -1 -0 0 -1 -2 -6 -7 -8 -7 -8 -5 -2 -4 -6 -2 -1 -4 -6 -4 -3 -1 1 -5
-6 0 -1 6 -2 -2 0 -0 1 -2 -1 -0 -3 1 -2 2 -1 -3 -1 -1 -1 -1 -2 1 -2 1 -0 -0 -4 -6 -4 -6 -8 -3 1 -1 -2 3 -2 -6 2 1 1 -0
-1 -4 1 1 1 0 -2 -0 -0 -2 -1 1 -1 -3 0 2 6 -1 0 0 -2 1 1 -3 -4 1 -1 -3 1 0 -3 -1 -0 -3 -1 -1 -1 -4 -8 18 -5 -5 -3 -4
-2 -4 1 2 1 2 -1 -1 -7 -5 1 -3 1 1 -0 -2 3 2 2 -1 -2 -2 3 -1 -4 -0 1 -6 2 0 -1 -1 -5 -1 -3 -2 -1 -2 -3 -8 -6 7 -0 -3
2 -1 -1 2 4 2 -2 -2 -3 -2 -0 -2 -2 -1 1 -0 -1 2 0 -3 -3 -0 1 -3 -2 5 -3 -7 -1 2 1 1 -0 -1 -1 -4 -4 -2 -2 -3 -4 -3 -2 2
-0 -2 1 -0 2 3 -0 2 -7 -0 -2 -3 -0 1 -1 -2 -2 0 2 -1 -3 1 1 -3 -6 -2 -2 -3 -2 0 1 -0 -2 -2 0 -0 -0 -1 -3 -4 -4 -4 -0 -4
-0 4 3 4 1 3 2 1 -5 -4 -1 1 -1 1 -0 1 1 2 1 -3 1 0 1 -2 -5 -1 -2 -1 -2 -2 -0 3 1 -1 -2 -2 -2 -1 -2 -0 -2 -6 -6 -5
-1 -1 -0 -5 -5 -4 4 5 -1 -2 -0 -2 -1 0 0 0 0 2 -0 -0 1 -2 0 -7 -1 -3 -3 -0 -3 -1 -3 -1 1 0 -0 -0 -1 -2 -1 -0 -1 -2 2 4
1 2 3 2 -1 -5 -4 -3 -2 -2 1 -1 1 2 1 1 1 2 1 1 3 -5 7 3 -1 -3 -2 -2 -1 -0 -1 -3 -1 -0 -1 -1 1 0 -2 -1 -1 -0 -1 -0
3 2 -0 -2 1 -6 -5 -1 -2 2 2 1 1 2 4 4 -2 3 -1 -1 8 -9 1 -2 -4 -3 -1 -0 -0 -2 -4 -3 -2 1 1 -1 0 -1 -0 -1 -2 -0 -0 -0
-1 -0 -1 -3 -1 2 -1 -2 -0 2 2 2 1 3 1 5 4 1 0 -7 23 -5 3 -1 -6 -6 -4 -1 -2 -3 -2 1 -1 -2 -0 1 -0 -2 -1 1 -0 -1 -0 -0
-0 -2 -2 -2 -2 1 0 -0 -0 -1 -0 2 3 3 1 3 5 4 4 -3 7 3 1 2 3 -3 -4 -5 -4 -1 2 -0 -0 -1 -1 -2 -1 -1 -0 -0 0 0 1 1
-1 -3 -3 -3 -3 -2 0 -1 1 -1 -1 1 1 2 2 2 5 -1 0 14 0 2 -1 -2 -1 -2 -4 -4 -1 -1 -1 -0 -0 -1 -0 -1 -1 0 -0 -1 -0 -0 -0 1
-1 -1 -1 -1 -1 -2 -2 5 3 2 -0 2 3 2 -1 -1 6 7 2 1 4 4 2 4 0 1 -9 0 1 -2 -1 -1 -1 -2 0 0 0 -1 -0 -1 -0 -0 0 0
-2 -3 -2 -2 -1 -1 -0 -2 -2 -3 1 3 3 5 6 7 -8 7 2 3 3 3 1 3 3 -0 -2 -2 1 0 -0 0 -1 -0 1 1 0 -1 -0 -0 0 1 -0 -0
-0 -1 -0 -1 -6 -5 -2 -3 -3 -0 -3 -2 4 -0 -0 2 4 2 2 2 1 3 0 1 3 0 2 -1 0 -0 1 1 1 0 1 1 1 0 -0 -0 0 1 1 2
1 -2 -2 4 2 -0 -0 -2 -4 -2 -0 -0 -1 -1 -2 -1 1 1 3 1 2 3 3 3 3 1 2 0 1 1 0 0 1 1 1 1 1 1 0 0 0 1 1 1
Height
3039 3034 3031 3028 3027 3026 3023 3022 3020 3015 3011 3010 3008 3007 3005 3002 3001 2999 2996 2992 2991 2992 2990 2989 2989 2991 2994 2997 2997 3001 3003 3006 3007 3010 3015 3013 3019 3022 3025 3030 3031 3035 3035 3038
3034 3032 3030 3026 3025 3024 3021 3019 3016 3012 3009 3008 3005 3003 3002 3000 2998 2996 2995 2992 2990 2987 2985 2985 2986 2985 2985 2987 2991 2993 2993 2997 2998 3001 3005 3004 3004 3009 3013 3015 3019 3022 3026 3027
3034 3031 3027 3024 3023 3022 3020 3017 3014 3011 3010 3007 3006 3003 3000 2998 2995 2993 2991 2990 2987 2985 2983 2982 2981 2981 2981 2982 2981 2980 2980 2983 2988 2991 2992 2994 2994 2996 2996 3001 3002 3007 3014 3015
3034 3030 3029 3021 3021 3021 3018 3016 3013 3011 3008 3006 3003 3002 3000 2997 2994 2992 2989 2986 2985 2983 2980 2978 2976 2975 2973 2972 2973 2972 2970 2973 2977 2978 2979 2981 2981 2984 2987 2989 2991 2996 2999 3004
3036 3032 3023 3018 3019 3019 3017 3013 3010 3010 3008 3005 3002 3000 2999 2995 2992 2990 2987 2984 2981 2979 2979 2977 2974 2972 2970 2967 2962 2960 2965 2967 2966 2964 2965 2965 2968 2969 2971 2975 2979 2979 2985 2987
3035 3033 3027 3018 3018 3016 3015 3009 3009 3009 3006 3003 3000 2995 2994 2990 2988 2986 2984 2982 2980 2977 2974 2972 2970 2968 2965 2962 2961 2961 2960 2957 2954 2952 2951 2952 2954 2955 2955 2958 2963 2967 2969 2971
3033 3031 3021 3017 3016 3015 3014 3014 3007 3004 3001 2998 2996 2993 2989 2986 2984 2982 2979 2977 2974 2972 2970 2968 2965 2963 2961 2960 2958 2955 2953 2949 2946 2944 2942 2939 2940 2939 2941 2943 2945 2950 2956 2958
3028 3026 3019 3016 3015 3014 3011 3006 3002 2998 2995 2992 2990 2988 2984 2982 2980 2978 2976 2973 2970 2968 2965 2962 2959 2957 2955 2953 2951 2949 2946 2941 2936 2931 2930 2930 2930 2929 2928 2928 2930 2932 2937 2942
3025 3016 3013 3012 3010 3007 3003 2999 2996 2994 2991 2988 2986 2983 2981 2978 2976 2973 2971 2969 2966 2963 2961 2958 2955 2952 2949 2945 2942 2939 2935 2932 2930 2928 2926 2923 2920 2916 2916 2916 2916 2917 2920 2923
3016 3010 3009 3007 3004 3001 2998 2995 2992 2989 2986 2984 2981 2978 2976 2973 2970 2968 2966 2963 2961 2958 2955 2953 2949 2946 2943 2940 2937 2933 2929 2926 2923 2922 2920 2917 2912 2910 2909 2907 2906 2905 2905 2906
3006 3005 3003 3001 2999 2996 2993 2989 2986 2984 2982 2979 2975 2973 2969 2967 2964 2962 2959 2957 2954 2951 2948 2946 2942 2939 2936 2933 2930 2928 2925 2922 2918 2915 2913 2911 2907 2904 2902 2900 2897 2894 2893 2892
3000 3000 2997 2996 2992 2989 2986 2983 2981 2978 2975 2972 2967 2965 2962 2960 2956 2954 2952 2949 2946 2943 2941 2938 2935 2932 2929 2925 2923 2920 2918 2915 2913 2910 2906 2902 2899 2898 2895 2890 2887 2884 2882 2880
2996 2993 2991 2989 2986 2982 2980 2977 2974 2971 2967 2964 2960 2956 2953 2951 2948 2944 2943 2940 2937 2935 2931 2929 2926 2924 2920 2917 2914 2911 2908 2906 2904 2901 2898 2894 2891 2887 2886 2885 2878 2874 2872 2870
2988 2986 2985 2981 2979 2975 2972 2969 2966 2963 2959 2954 2950 2946 2942 2940 2939 2935 2933 2929 2927 2924 2922 2919 2916 2914 2910 2906 2904 2901 2899 2896 2893 2891 2889 2886 2883 2879 2875 2873 2871 2871 2866 2862
2982 2977 2974 2973 2970 2967 2964 2961 2958 2954 2949 2945 2939 2935 2932 2929 2927 2925 2921 2918 2916 2914 2912 2908 2905 2904 2898 2895 2893 2891 2888 2886 2883 2882 2879 2876 2874 2872 2868 2865 2862 2860 2858 2856
2974 2970 2967 2965 2963 2960 2956 2952 2946 2943 2938 2933 2928 2924 2920 2917 2916 2914 2910 2907 2906 2904 2900 2896 2895 2892 2888 2885 2882 2880 2878 2875 2872 2870 2869 2867 2865 2862 2860 2858 2855 2853 2850 2847
2965 2963 2960 2957 2953 2951 2947 2942 2936 2931 2925 2920 2916 2912 2909 2906 2905 2903 2900 2897 2895 2893 2889 2885 2883 2880 2877 2874 2871 2869 2866 2864 2861 2859 2857 2856 2854 2852 2851 2849 2848 2846 2843 2840
2955 2953 2950 2946 2942 2939 2936 2931 2924 2917 2912 2907 2904 2901 2898 2895 2894 2892 2888 2886 2884 2882 2878 2874 2871 2868 2865 2861 2858 2857 2855 2853 2850 2848 2846 2844 2843 2841 2840 2839 2839 2838 2836 2834
2947 2944 2941 2938 2933 2928 2922 2917 2910 2904 2899 2894 2892 2889 2886 2884 2881 2879 2877 2875 2873 2870 2869 2864 2861 2857 2853 2849 2846 2845 2844 2841 2838 2836 2833 2832 2831 2830 2829 2828 2828 2829 2828 2827
2939 2935 2931 2927 2921 2914 2909 2903 2896 2891 2887 2882 2879 2877 2874 2871 2868 2867 2864 2864 2862 2857 2856 2854 2851 2848 2843 2839 2835 2834 2832 2830 2827 2825 2823 2821 2820 2820 2819 2817 2817 2818 2819 2819
2929 2924 2919 2913 2907 2901 2895 2889 2883 2878 2875 2871 2867 2864 2861 2859 2856 2853 2852 2851 2851 2846 2844 2842 2840 2837 2834 2830 2826 2823 2820 2818 2816 2815 2813 2811 2810 2810 2809 2808 2808 2808 2810 2811
2917 2911 2905 2899 2893 2888 2882 2876 2871 2866 2861 2858 2854 2850 2847 2846 2843 2841 2839 2837 2837 2834 2833 2831 2827 2826 2823 2819 2816 2813 2810 2808 2806 2805 2803 2802 2801 2800 2800 2799 2799 2799 2800 2802
2903 2897 2891 2886 2880 2875 2870 2864 2859 2853 2849 2844 2841 2838 2834 2831 2829 2826 2826 2825 2823 2821 2819 2819 2817 2814 2811 2809 2806 2803 2801 2799 2797 2796 2794 2793 2792 2791 2791 2790 2790 2791 2791 2793
2891 2885 2879 2874 2868 2862 2857 2852 2846 2841 2837 2832 2827 2823 2819 2816 2815 2813 2810 2809 2808 2808 2807 2805 2804 2802 2799 2798 2796 2793 2791 2790 2789 2788 2787 2785 2784 2784 2783 2783 2783 2783 2784 2785
2879 2873 2866 2859 2853 2846 2841 2835 2830 2825 2821 2817 2813 2810 2806 2802 2799 2798 2796 2795 2794 2793 2793 2793 2791 2790 2788 2787 2785 2783 2782 2781 2781 2780 2779 2778 2777 2777 2776 2776 2776 2776 2776 2777
2867 2859 2852 2845 2838 2831 2825 2820 2814 2809 2804 2800 2798 2793 2789 2787 2785 2784 2782 2781 2781 2780 2780 2780 2779 2778 2777 2776 2775 2774 2773 2773 2773 2772 2772 2772 2771 2771 2770 2770 2770 2770 2770 2771
2855 2848 2841 2835 2828 2821 2815 2809 2803 2798 2793 2789 2784 2780 2777 2775 2772 2771 2769 2768 2768 2768 2767 2767 2767 2767 2766 2766 2766 2766 2766 2765 2765 2765 2765 2765 2765 2765 2765 2765 2765 2765 2765 2766